Weather History for St. Augustine, FL

Change the Weather History Date:

Friday, January 25, 2013

  Actual Average Record
Temperature  
Mean Temperature 63 °F -  
Max Temperature 71 °F 62 °F 83 °F (1990)
Min Temperature 55 °F 45 °F 24 °F (2003)
Degree Days  
Heating Degree Days 2    
Growing Degree Days 13 (Base 50)    
Moisture  
Dew Point 52 °F    
Average Humidity 73    
Maximum Humidity 93    
Minimum Humidity 41    
Precipitation  
Precipitation 0.00 in - - ()
Sea Level Pressure  
Sea Level Pressure 30.26 in    
Wind  
Wind Speed 7 mph (North)    
Max Wind Speed 12 mph    
Max Gust Speed -    
Visibility 10 miles    
Events      
Averages and records for this station are not official NWS values.
T = Trace of Precipitation, MM = Missing Value Source: NWS Daily Summary

Daily Weather History Graph

Daily Weather History Graph

Search for Another Location

Airport:

Trip Planner

Search our weather history database for the weather conditions in past years. The results will help you decide how hot, cold, wet, or windy it might be!

Date:

Astronomy

Jan. 25, 2013 Rise Set
Actual Time 7:18 AM EST 5:56 PM EST
Civil Twilight 6:53 AM EST 6:22 PM EST
Nautical Twilight 6:24 AM EST 6:51 PM EST
Astronomical Twilight 5:56 AM EST 7:19 PM EST
Moon 4:52 PM EST (1/25) 5:56 AM EST (1/25)
Length of Visible Light 11h 28m
Length of Day
10h 37m
Waxing Gibbous, 98% of the Moon is Illuminated
Jan 25
Waxing Gibbous
Jan 26
Full
Feb 3
Last Quarter
Feb 10
New
Feb 17
First Quarter

Hourly Weather History & Observations

Time (EST) Temp. Dew Point Humidity Pressure Visibility Wind Dir Wind Speed Gust Speed Precip Events Conditions
12:58 AM 57.0 °F 52.0 °F 83% 30.30 in 10.0 mi NW 4.6 mph - N/A   Partly Cloudy
1:58 AM 55.0 °F 52.0 °F 89% 30.30 in 10.0 mi NW 4.6 mph - N/A   Clear
2:58 AM 55.0 °F 53.1 °F 93% 30.29 in 9.0 mi NW 6.9 mph - N/A   Partly Cloudy
3:58 AM 55.0 °F 53.1 °F 93% 30.30 in 8.0 mi NNW 8.1 mph - N/A   Mostly Cloudy
4:58 AM 57.0 °F 55.0 °F 93% 30.30 in 10.0 mi North 10.4 mph - N/A   Overcast
5:58 AM 57.9 °F 55.0 °F 90% 30.31 in 10.0 mi North 10.4 mph - N/A   Overcast
6:58 AM 57.9 °F 55.0 °F 90% 30.32 in 10.0 mi North 9.2 mph - N/A   Mostly Cloudy
7:58 AM 57.9 °F 55.9 °F 93% 30.33 in 7.0 mi North 9.2 mph - N/A   Overcast
8:58 AM 61.0 °F 57.0 °F 87% 30.33 in 10.0 mi North 11.5 mph - N/A   Partly Cloudy
9:58 AM 64.0 °F 57.9 °F 80% 30.34 in 10.0 mi NNW 5.8 mph - N/A   Clear
10:58 AM 66.0 °F 55.9 °F 70% 30.33 in 10.0 mi NNE 6.9 mph - N/A   Clear
11:58 AM 68.0 °F 55.9 °F 65% 30.31 in 10.0 mi NE 10.4 mph - N/A   Partly Cloudy
12:58 PM 68.0 °F 55.0 °F 63% 30.26 in 10.0 mi East 6.9 mph - N/A   Clear
1:58 PM 70.0 °F 46.9 °F 44% 30.22 in 10.0 mi East 8.1 mph - N/A   Clear
2:58 PM 71.1 °F 46.0 °F 41% 30.20 in 10.0 mi ESE 11.5 mph - N/A   Clear
3:58 PM 70.0 °F 46.0 °F 42% 30.20 in 10.0 mi ESE 9.2 mph - N/A   Clear
4:58 PM 66.9 °F 46.9 °F 49% 30.19 in 10.0 mi SE 6.9 mph - N/A   Clear
5:58 PM 63.0 °F 51.1 °F 65% 30.20 in 10.0 mi ESE 4.6 mph - N/A   Clear
6:58 PM 61.0 °F 51.1 °F 70% 30.20 in 10.0 mi Calm Calm - N/A   Clear
7:58 PM 57.9 °F 50.0 °F 75% 30.20 in 10.0 mi Calm Calm - N/A   Clear
8:58 PM 59.0 °F 48.9 °F 69% 30.21 in 10.0 mi WSW 6.9 mph - N/A   Clear
9:58 PM 57.9 °F 48.0 °F 70% 30.22 in 10.0 mi SW 4.6 mph - N/A   Clear
10:58 PM 57.9 °F 48.0 °F 70% 30.22 in 10.0 mi WSW 4.6 mph - N/A   Clear
11:58 PM 57.0 °F 46.9 °F 69% 30.22 in 10.0 mi WSW 4.6 mph - N/A   Clear